| time (UTC) | temp C | wind direction | speed KPH | gust KPH | rain 1hr cm | rain 24hr cm | rain mn cm | humidity % | barometer mb |
| 20260503004527 | 13 | 296 | 0.0 | 3.2 | 0.03 | 0.03 | 0.03 | 82 | 1012.4 |
| 20260503003025 | 13 | 296 | 0.0 | 3.2 | 0.03 | 0.03 | 0.03 | 81 | 1012.8 |
| 20260503001520 | 14 | 282 | 0.0 | 8.0 | 0.03 | 0.03 | 0.03 | 80 | 1013.0 |
| 20260503000028 | 15 | 290 | 0.0 | 6.4 | 0.00 | 0.00 | 0.00 | 77 | 1013.5 |
| 20260502234514 | 15 | 288 | 1.6 | 8.0 | 0.00 | 0.00 | 0.00 | 75 | 1014.2 |
| 20260502233011 | 15 | 94 | 0.0 | 3.2 | 0.00 | 0.00 | 0.00 | 75 | 1014.3 |
| 20260502231509 | 15 | 93 | 0.0 | 3.2 | 0.00 | 0.00 | 0.00 | 75 | 1014.3 |
| 20260502230008 | 15 | 93 | 0.0 | 1.6 | 0.00 | 0.00 | 0.00 | 74 | 1014.0 |
| 20260502224507 | 15 | 93 | 0.0 | 4.8 | 0.00 | 0.00 | 0.00 | 74 | 1013.7 |
| 20260502223004 | 15 | 94 | 0.0 | 1.6 | 0.00 | 0.00 | 0.00 | 73 | 1013.8 |
| 20260502221502 | 15 | 94 | 0.0 | 3.2 | 0.00 | 0.00 | 0.00 | 72 | 1013.8 |
| 20260502220100 | 15 | 94 | 0.0 | 3.2 | 0.00 | 0.00 | 0.00 | 71 | 1013.9 |
| 20260502214602 | 15 | 94 | 0.0 | 4.8 | 0.00 | 0.00 | 0.00 | 71 | 1014.1 |
| 20260502213055 | 15 | 95 | 0.0 | 12.9 | 0.00 | 0.00 | 0.00 | 71 | 1014.3 |
| 20260502211555 | 15 | 355 | 0.0 | 3.2 | 0.00 | 0.00 | 0.00 | 70 | 1014.5 |
| 20260502210054 | 15 | 355 | 0.0 | 4.8 | 0.00 | 0.00 | 0.00 | 70 | 1014.3 |
| 20260502204608 | 16 | 35 | 0.0 | 4.8 | 0.00 | 0.00 | 0.00 | 69 | 1014.5 |
| 20260502203112 | 16 | 306 | 0.0 | 1.6 | 0.00 | 0.00 | 0.00 | 68 | 1014.4 |
| 20260502201549 | 16 | 306 | 1.6 | 4.8 | 0.00 | 0.00 | 0.00 | 68 | 1014.6 |
| 20260502200049 | 16 | 306 | 0.0 | 3.2 | 0.00 | 0.00 | 0.00 | 67 | 1014.8 |
| 20260502194553 | 16 | 303 | 1.6 | 4.8 | 0.00 | 0.00 | 0.00 | 68 | 1014.9 |
| 20260502193049 | 17 | 302 | 1.6 | 4.8 | 0.00 | 0.00 | 0.00 | 68 | 1014.8 |
| 20260502191551 | 17 | 297 | 1.6 | 3.2 | 0.00 | 0.00 | 0.00 | 66 | 1014.7 |
| 20260502190046 | 18 | 297 | 0.0 | 4.8 | 0.00 | 0.00 | 0.00 | 63 | 1014.6 |
| 20260502184545 | 18 | 297 | 0.0 | 3.2 | 0.00 | 0.00 | 0.00 | 64 | 1014.7 |
| 20260502183045 | 19 | 292 | 1.6 | 4.8 | 0.00 | 0.00 | 0.00 | 64 | 1014.6 |
| 20260502181603 | 20 | 292 | 0.0 | 9.7 | 0.00 | 0.00 | 0.00 | 63 | 1014.7 |
| 20260502163035 | 23 | 340 | 4.8 | 17.7 | 0.00 | 0.00 | 0.00 | 60 | 1015.1 |
| 20260502161532 | 23 | 259 | 6.4 | 14.5 | 0.00 | 0.00 | 0.00 | 55 | 1015.2 |
| 20260502151516 | 23 | 277 | 3.2 | 11.3 | 0.00 | 0.00 | 0.00 | 56 | 1015.7 |
| 20260502123021 | 22 | 265 | 8.0 | 17.7 | 0.00 | 0.00 | 0.00 | 56 | 1017.1 |
| 20260502121515 | 22 | 276 | 8.0 | 19.3 | 0.00 | 0.00 | 0.00 | 57 | 1017.2 |
| 20260502114553 | 22 | 256 | 11.3 | 20.9 | 0.00 | 0.00 | 0.00 | 54 | 1017.4 |
| 20260502113051 | 22 | 263 | 6.4 | 20.9 | 0.00 | 0.00 | 0.00 | 50 | 1017.5 |
| 20260502111545 | 22 | 350 | 4.8 | 22.5 | 0.00 | 0.00 | 0.00 | 48 | 1017.5 |
| 20260502110045 | 23 | 250 | 8.0 | 16.1 | 0.00 | 0.00 | 0.00 | 43 | 1017.5 |
| 20260502104542 | 23 | 186 | 1.6 | 11.3 | 0.00 | 0.00 | 0.00 | 41 | 1017.6 |
| 20260502103038 | 23 | 120 | 3.2 | 12.9 | 0.00 | 0.00 | 0.00 | 42 | 1017.7 |
| 20260502101538 | 21 | 258 | 0.0 | 4.8 | 0.00 | 0.00 | 0.00 | 44 | 1017.8 |
| 20260502091522 | 18 | 260 | 1.6 | 12.9 | 0.00 | 0.00 | 0.00 | 51 | 1018.3 |
| 20260502071509 | 17 | 129 | 1.6 | 9.7 | 0.00 | 0.00 | 0.00 | 50 | 1018.3 |
| 20260502070007 | 17 | 144 | 3.2 | 6.4 | 0.00 | 0.00 | 0.00 | 50 | 1018.6 |
| 20260502064508 | 16 | 92 | 3.2 | 12.9 | 0.00 | 0.00 | 0.00 | 50 | 1018.7 |
| 20260502063100 | 16 | 220 | 0.0 | 4.8 | 0.00 | 0.00 | 0.00 | 51 | 1018.5 |
| 20260502061556 | 15 | 139 | 1.6 | 9.7 | 0.00 | 0.00 | 0.00 | 52 | 1018.3 |
| 20260502060051 | 15 | 184 | 3.2 | 6.4 | 0.00 | 0.00 | 0.00 | 53 | 1018.4 |
| 20260502054555 | 14 | 168 | 3.2 | 11.3 | 0.00 | 0.00 | 0.00 | 55 | 1018.4 |
| 20260502053042 | 13 | 142 | 1.6 | 9.7 | 0.00 | 0.00 | 0.00 | 56 | 1018.4 |
| 20260502051540 | 13 | 171 | 1.6 | 8.0 | 0.00 | 0.00 | 0.00 | 57 | 1018.5 |
| 20260502050033 | 12 | 150 | 1.6 | 9.7 | 0.00 | 0.00 | 0.00 | 58 | 1018.5 |
| 20260502044537 | 11 | 147 | 1.6 | 8.0 | 0.00 | 0.00 | 0.00 | 60 | 1018.5 |
| 20260502043028 | 11 | 145 | 1.6 | 8.0 | 0.00 | 0.00 | 0.00 | 60 | 1018.5 |
| 20260502041527 | 11 | 154 | 0.0 | 8.0 | 0.00 | 0.00 | 0.00 | 60 | 1018.6 |
| 20260502040037 | 11 | 143 | 0.0 | 4.8 | 0.00 | 0.00 | 0.00 | 60 | 1018.7 |
| 20260502034527 | 12 | 156 | 0.0 | 3.2 | 0.00 | 0.00 | 0.00 | 59 | 1018.8 |
| 20260502033021 | 12 | 198 | 0.0 | 9.7 | 0.00 | 0.00 | 0.00 | 59 | 1019.0 |
| 20260502031519 | 12 | 148 | 1.6 | 8.0 | 0.00 | 0.00 | 0.00 | 58 | 1019.0 |
| 20260502030017 | 12 | 159 | 1.6 | 11.3 | 0.00 | 0.00 | 0.00 | 58 | 1019.1 |
| 20260502024521 | 12 | 126 | 3.2 | 12.9 | 0.00 | 0.00 | 0.00 | 57 | 1019.1 |
| 20260502023014 | 12 | 128 | 3.2 | 11.3 | 0.00 | 0.00 | 0.00 | 57 | 1019.2 |
| 20260502021511 | 12 | 140 | 1.6 | 6.4 | 0.00 | 0.00 | 0.00 | 56 | 1019.3 |
| 20260502020009 | 12 | 152 | 1.6 | 8.0 | 0.00 | 0.00 | 0.00 | 56 | 1019.4 |
| 20260502014524 | 13 | 167 | 1.6 | 9.7 | 0.00 | 0.00 | 0.00 | 55 | 1019.5 |
| 20260502013005 | 13 | 175 | 1.6 | 8.0 | 0.00 | 0.00 | 0.00 | 54 | 1019.6 |
| 20260502011502 | 13 | 146 | 1.6 | 4.8 | 0.00 | 0.00 | 0.00 | 53 | 1019.7 |